Saeid Jahanbakhsh

Chefscout - Padideh
3 Apr 2027
Samstag
Verarbeitung

Persönlichkeit

Anpassungsfähigkeit (18) Ehrgeiz (2) Kontroverse (14) Loyalität (15) Druck (7) Professionalität (7) Fairness (10) Temperament (7)

Profil

Trainerstil Demokratisch
Lizenz Kontinentale C
Entschlossenheit 4
Menschenführung 11
Motivation 9
Disziplin 7
Arbeitszufriedenheit
50%
Ermüdung
0%
Rolle Chefscout
Gehalt 68.7K p/W
Vertrag 14.03.2028

Leistung

Verhalten Normal
Trainingseffektivität
15%
Spielerentwicklung
40%
Verletzungsprävention
15%
Taktische Umsetzung
35%

Letzte Ereignisse

Nahm an einer Scouting-Besprechung teil jetzt
Nahm an einer Scouting-Besprechung teil jetzt
Nahm an einer Scouting-Besprechung teil jetzt
Nahm an einer Scouting-Besprechung teil 7T her
Nahm an einer Scouting-Besprechung teil 7T her
Nahm an einer Scouting-Besprechung teil 7T her
Nahm an einer Scouting-Besprechung teil 7T her
Nahm an einer Scouting-Besprechung teil 7T her

Aktuell beobachtet

96
Spieler Verein Status Fähigkeit Vertrauen Beobachtet Zuletzt beobachtet Letzte Stimme
Kaveh Rezaei Sepahan Aktiv 105 / 116 51% 1 18.01.2027 -
Felipe Cairus Godoy Cruz Aktiv 92 / 101 40% 1 30.12.2026 -
Lucas Richarte Temperley Aktiv 95 / 98 40% 4 29.12.2026 -
Tobías Macies Almagro Aktiv 113 / 104 40% 2 29.12.2026 -
Brandon Caicedo Atletico Bucaramanga Aktiv 87 / 97 40% 3 22.12.2026 -
Abdul Sulemana Liberty Professionals Aktiv 86 / 105 40% 1 22.12.2026 -
Juan Pablo De la Reta Maipú Aktiv 109 / 108 40% 1 21.12.2026 -
Santiago Cubides Jaguares Aktiv 119 / 106 40% 2 20.12.2026 -
Julián Vera Maipú Aktiv 101 / 97 40% 2 19.12.2026 Mehr Infos nötig
Agustín Kahl Racing Aktiv 117 / 103 40% 1 19.12.2026 -
Matías Ledesma San Telmo Aktiv 97 / 97 40% 1 18.12.2026 -
Agustín Villalobos Godoy Cruz Aktiv 89 / 110 40% 1 17.12.2026 -
Javier Pereyra Nueva Chicago Aktiv 100 / 108 40% 1 16.12.2026 -
Diego Núñez Colon Aktiv 88 / 87 40% 1 16.12.2026 -
Julián Pou Montevideo City Torque Aktiv 96 / 112 40% 1 15.12.2026 -
Alan Ortiz Maipú Aktiv 93 / 110 40% 1 15.12.2026 -
Ezequiel Busquets Montevideo City Torque Aktiv 98 / 100 40% 1 12.12.2026 -
Mauro Peinipil Colón Aktiv 126 / 120 40% 3 11.12.2026 Beobachten
Nicolás Utrera Colón Aktiv 106 / 112 40% 1 11.12.2026 Mehr Infos nötig
Santiago Guzmán Wanderers Aktiv 115 / 101 40% 1 09.12.2026 Mehr Infos nötig
Santiago Cáceres All Boys Aktiv 92 / 113 40% 1 05.12.2026 -
Luciano Paredes Maipú Aktiv 110 / 108 40% 1 02.12.2026 -
Mamane Moustapha Sabo Javor-Matis Aktiv 92 / 92 40% 1 02.12.2026 -
Abdihakin Ali AIK Aktiv 118 / 100 40% 1 30.11.2026 -
Sivert Øverby Kalmar FF Aktiv 88 / 112 40% 2 26.11.2026 -
Arbnor Mucolli IFK Goteborg Aktiv 112 / 117 40% 3 25.11.2026 -
Leonel Vega Atlético Tucumán Aktiv 112 / 91 40% 1 25.11.2026 -
Luca Andrada AEL Larisa Aktiv 109 / 107 40% 1 21.11.2026 -
Ignacio Manzanares Belgrano Aktiv 83 / 114 40% 2 20.11.2026 -
Cristian Ludueña Talleres Aktiv 121 / 117 40% 2 20.11.2026 -
Melker Nilsson Falkenberg Aktiv 97 / 89 40% 1 19.11.2026 -
Savo Rašković Radnik Surdulica Aktiv 88 / 94 40% 1 18.11.2026 -
Marcus Melchior Sandefjord Aktiv 93 / 116 40% 1 17.11.2026 -
Anthony Olusanya Kalmar FF Aktiv 85 / 88 40% 1 17.11.2026 -
Kreshnik Krasniqi Stromsgodset Aktiv 112 / 124 40% 2 16.11.2026 -
Nicolás Romano Gimnasia y Esgrima Aktiv 108 / 106 40% 1 16.11.2026 -
Valentino Massi Sarmiento Aktiv 84 / 117 40% 1 09.11.2026 -
Luca Regiardo Newell's Old Boys Aktiv 104 / 122 40% 2 06.11.2026 -
Marko Đira Viitorul Aktiv 91 / 86 40% 1 05.11.2026 -
Gerónimo Tomasetti Temperley Aktiv 126 / 99 40% 2 02.11.2026 -
Gastón Martínez Belgrano Aktiv 78 / 112 40% 1 02.11.2026 -
Eirik Wichne Sarpsborg 08 Aktiv 103 / 116 40% 2 24.10.2026 -
Gonzalo Asis Almagro Aktiv 95 / 118 40% 3 23.10.2026 -
Nicolás Varela Akron Aktiv 104 / 81 40% 2 22.10.2026 -
Vüqar Mustafayev Inter Aktiv 101 / 105 40% 1 22.10.2026 -
Lucas Arce Godoy Cruz Aktiv 109 / 112 40% 2 21.10.2026 -
Konstantin Savichev Fakel Aktiv 95 / 108 40% 4 20.10.2026 -
Vladislav Kamilov Ufa Aktiv 120 / 105 40% 1 20.10.2026 -
Maximiliano Badur Morón Aktiv 89 / 116 40% 1 20.10.2026 -
Alejandro Almaraz Nueva Chicago Aktiv 90 / 105 40% 1 18.10.2026 -
Mauricio Cardillo San Lorenzo Aktiv 102 / 112 40% 1 16.10.2026 -
Kamer Qaka Naftan Aktiv 119 / 88 40% 1 16.10.2026 -
Juan Manuel Vázquez Los Andes Aktiv 96 / 104 40% 2 15.10.2026 -
Nicolás Fernández Tristán Suárez Aktiv 109 / 107 40% 3 14.10.2026 -
Arshak Koryan SKA Khabarovsk Aktiv 102 / 83 40% 2 12.10.2026 -
Ahmet Arslan Breidablik Aktiv 101 / 112 40% 1 11.10.2026 -
Jakob Bonde OB Aktiv 130 / 102 40% 1 08.10.2026 -
Darío Rodríguez IFK Mariehamn Aktiv 85 / 99 40% 1 06.10.2026 -
Dmytro Shcherbak Montana Aktiv 98 / 86 40% 1 06.10.2026 -
Pablo Aguiar Gimnasia La Plata Aktiv 94 / 111 40% 1 06.10.2026 -
Franco Sivetti Gimnasia y Tiro Aktiv 118 / 92 40% 1 04.10.2026 -
Pavel Kireenko Dinamo St Petersburg Aktiv 90 / 85 40% 1 02.10.2026 -
Josué Estrada Universitario Aktiv 124 / 122 40% 1 01.10.2026 -
Andres Lioi Chaco For Ever Aktiv 109 / 116 40% 1 01.10.2026 -
David Seger BK Hacken Aktiv 91 / 110 40% 2 30.09.2026 -
Lautaro Pertusatti River Plate Aktiv 87 / 98 40% 3 28.09.2026 -
Raudy Guerrero Deportivo Lara Aktiv 108 / 106 40% 2 26.09.2026 -
Igor Konovalov Chernomorets Aktiv 80 / 109 40% 1 26.09.2026 -
Vladislav Yatskevich BATE Aktiv 106 / 98 40% 1 25.09.2026 -
Magnus Lankhof Dahlby Stabaek Aktiv 99 / 111 40% 1 23.09.2026 -
Francisco Perruzzi Aldosivi Aktiv 90 / 98 40% 2 22.09.2026 -
Nicolás Linares Gimnasia y Esgrima Aktiv 110 / 106 40% 3 22.09.2026 -
Dimas Meza Carabobo Aktiv 87 / 107 40% 1 19.09.2026 -
Mauro Carrizo Atlético Tucumán Aktiv 79 / 110 40% 1 19.09.2026 -
Gastón Tedesco Molde Aktiv 107 / 91 40% 1 18.09.2026 -
Carlo Lattanzio San Martín SJ Aktiv 109 / 99 40% 2 16.09.2026 -
Santino Piccinetti Huracán Aktiv 83 / 92 40% 1 15.09.2026 -
Peter Reinhardsen Sarpsborg 08 Aktiv 129 / 99 40% 1 14.09.2026 -
Leonardo Escalante Almirante Brown Aktiv 103 / 96 40% 1 13.09.2026 -
José Navarro Estudiantes de Caracas Aktiv 88 / 111 40% 2 09.09.2026 -
Thomas Ortega Quilmes Aktiv 125 / 119 40% 1 09.09.2026 -
Nicolás Fernández Maipú Aktiv 123 / 100 40% 1 09.09.2026 -
Fernando Román Defensa y Justicia Aktiv 90 / 119 40% 1 09.09.2026 -
Shoya Nakajima Esteghlal Ahvaz Aktiv 83 / 90 40% 1 07.09.2026 -
Luciano Sánchez Argentinos Juniors Aktiv 122 / 112 40% 2 06.09.2026 -
Gonzalo Tapia Palestino Aktiv 97 / 113 40% 1 04.09.2026 -
Ariel Torres All Boys Aktiv 86 / 94 40% 1 04.09.2026 -
Max Svensson Helsingborg Aktiv 83 / 101 40% 1 03.09.2026 -
Fernando Camarda Central Espanol Aktiv 81 / 93 40% 1 01.09.2026 -
Kristiyan Malinov Cherno More Aktiv 109 / 89 40% 1 31.08.2026 -
José Soto Portuguesa Aktiv 84 / 101 40% 1 31.08.2026 -
Yegor Kortsov Dinamo Brest Aktiv 112 / 120 40% 1 27.08.2026 -
Esteven Salguero Patriotas Aktiv 115 / 98 40% 1 26.08.2026 -
Luis Guevara Real Cartagena Aktiv 94 / 90 40% 1 24.08.2026 -
Cristhofer Mesías Universidad de Concepcion Aktiv 87 / 110 40% 1 24.08.2026 -
Eric Remedi Penarol Aktiv 112 / 124 40% 1 02.08.2026 -